ONEWEB-0025, 45138

Orbit data source: Space-Track

ONEWEB-0025, 45138 is a payload satellite owned by One Web (UK) in LEO that was launched on Thu, 06 Feb 2020 UTC via a SOYUZ-2-1B launch vehicle from the Tyuratam Missile And Space Complex (TTMTR). Payload-class satellites include a variety of spacecraft equipped with specific instruments for various scientific and technological missions. These include communications satellites like Starlink; space stations such as the ISS; scientific satellites like the Hubble; Earth observation satellites from companies like Planet Labs, Umbra, and HawkEye 360; GPS; miniature CubeSats for education and research; and military/defense satellites.

Loading next visibility...
Identifier
45138, 2020-008H
Orbit
LEO
Country
Flag of UKUK
Related business
Manufacturer
One Web
Mission
Operational Commercial Communications
Bus & Motor
ARROW, Unknown motor
Mass
148 kg wet, ~140 kg dry
Launch date (UTC)
2020-02-06 (6 years ago)
Launch vehicle
SOYUZ-2-1B
Launch site
Tyuratam Missile And Space Complex (TTMTR)
Object type
Payload
Rocket body
Debris
Shape & HBR
Trap Box + 2 Pan, 6.7 m
Radar Cross Section
3.464 m², Large (>1 m²)

Expand to show TLE details & history
Last TLE update: 7 hours ago

TLE from 7 hours ago
0 ONEWEB-0025
1 45138U 20008H   26035.12355288 -.00000254  00000-0 -76442-3 0  9990
2 45138  87.8762  62.7622 0001787  83.9719 276.1612 13.10377805291143
Epoch: 2026-02-04T02:57Z
TLE epoch observation values (Epoch: 2026-02-04T02:57:54.968Z)
Latitude
-0.00003°
Longitude
-116.01148°
Altitude
1,224.44 km
Speed
7.242 km/s
True Right ascension
04h 11m 02s
True Declination
0° 00' 00"
Sunlit
Object was in daylight at epoch
Visualization orbit readout
Latitude
Unknown
Longitude
Unknown
Altitude
Unknown
Speed
Unknown
Apparent Right ascension
Unknown
Apparent Declination
Unknown
Sunlit
N/A
Visualization observer readout
Local Sidereal Time
11:46:05
Azimuth
Unknown
Elevation
Unknown
Doppler factor
Unknown
Orbital elements
Apogee altitude
1,220.175 km
Perigee altitude
1,217.46 km
Semi-major axis
7,596.955 km
Eccentricity
0.00018
Inclination
87.8762°
RAAN
62.7622°
Arg. of periapsis
83.9719°
True anomaly
276.14084°
Mean anomaly
276.1612°
Eccentric anomaly
276.15102°
Mean motion
3.27781 °/min
Orbital period
109.83 mins
BSTAR
-0.00076442
Loading maneuver chart data...
Computing Atmospheric mass density...
Loading historical data...
Loading historical data...
Loading historical data...
Loading historical data...
Loading historical data...
Loading historical data...
Loading historical data...

Documentation

Showing up to 5 results
|